EA4BPO Weather Reports


Display with metric or nautical units.
time (UTC)temp
F
wind
direction
speed
MPH
gust
MPH
rain 1hr
in
rain 24hr
in
rain mn
in
humidity
%
barometer
mb
20260504194503 58 262 5.0 10.0 0.00 0.36 0.00 57 1012.2
20260504194024 58 265 5.0 10.0 0.00 0.36 0.00 58 1012.2
20260504193524 59 268 5.0 10.0 0.00 0.36 0.00 58 1012.2
20260504193003 59 265 5.0 9.0 0.00 0.36 0.00 58 1012.1
20260504192503 59 266 5.0 8.0 0.00 0.36 0.00 57 1011.8
20260504192003 59 266 5.0 9.0 0.00 0.36 0.00 57 1011.9
20260504191503 59 273 5.0 9.0 0.00 0.36 0.00 56 1011.9
20260504191003 59 268 4.0 10.0 0.00 0.36 0.00 56 1011.9
20260504190524 59 269 4.0 10.0 0.00 0.36 0.00 56 1011.6
20260504190003 59 273 4.0 10.0 0.00 0.36 0.00 56 1011.4
20260504185503 59 280 4.0 10.0 0.00 0.36 0.00 56 1011.6
20260504185003 59 289 6.0 14.0 0.00 0.36 0.00 56 1011.8
20260504184524 60 282 6.0 14.0 0.00 0.36 0.00 56 1011.6
20260504184003 60 278 5.0 14.0 0.00 0.36 0.00 56 1011.6
20260504183503 61 274 4.0 10.0 0.00 0.36 0.00 54 1011.7
20260504183024 61 272 5.0 13.0 0.00 0.36 0.00 54 1011.5
20260504182503 61 288 4.0 13.0 0.00 0.36 0.00 54 1011.6
20260504182024 62 310 4.0 10.0 0.00 0.36 0.00 54 1011.4
20260504181503 62 323 5.0 13.0 0.00 0.36 0.00 54 1011.3
20260504181003 62 320 5.0 13.0 0.00 0.36 0.00 53 1011.4
20260504180503 63 301 3.0 9.0 0.00 0.36 0.00 52 1011.3
20260504180003 63 328 4.0 11.0 0.00 0.36 0.00 53 1011.3
20260504175524 62 320 4.0 11.0 0.00 0.36 0.00 53 1011.1
20260504175003 62 288 4.0 10.0 0.00 0.36 0.00 53 1011.3
20260504174503 62 289 4.0 11.0 0.00 0.36 0.00 52 1011.1
20260504174003 62 314 4.0 11.0 0.00 0.36 0.00 52 1011.3
20260504173503 62 309 4.0 9.0 0.00 0.36 0.00 52 1011.1
20260504173003 62 280 5.0 10.0 0.00 0.36 0.00 53 1011.1
20260504172503 62 268 6.0 13.0 0.00 0.36 0.00 52 1011.2
20260504172024 62 262 7.0 13.0 0.00 0.36 0.00 52 1011.2
20260504171503 62 270 5.0 13.0 0.00 0.36 0.00 51 1011.3
20260504171003 63 265 5.0 13.0 0.00 0.36 0.00 51 1011.0
20260504170503 63 256 6.0 13.0 0.00 0.36 0.00 51 1011.3
20260504151024 65 230 11.0 23.0 0.00 0.36 0.00 39 1011.0
20260504150503 65 220 12.0 23.0 0.00 0.36 0.00 41 1011.2
20260504141024 64 223 10.0 22.0 0.00 0.36 0.00 44 1011.0
20260504140524 65 225 8.0 19.0 0.00 0.36 0.00 46 1011.2
20260504130503 64 245 11.0 21.0 0.00 0.36 0.00 48 1011.4
20260504110524 62 227 9.0 21.0 0.00 0.36 0.00 52 1012.5
20260504100503 59 227 7.0 15.0 0.00 0.36 0.00 63 1012.8
20260504082003 54 200 5.0 10.0 0.00 0.36 0.00 81 1013.0
20260504081503 54 198 4.0 10.0 0.00 0.36 0.00 81 1012.7
20260504081003 55 226 2.0 6.0 0.00 0.36 0.00 77 1012.7
20260504080503 54 224 2.0 6.0 0.00 0.36 0.00 78 1012.8
20260504050503 52 200 2.0 7.0 0.00 0.36 0.36 82 1011.3
20260504050003 52 206 2.0 6.0 0.00 0.36 0.36 81 1011.3
20260504045503 52 196 3.0 6.0 0.00 0.36 0.36 81 1011.5
20260504045003 52 187 3.0 6.0 0.00 0.36 0.36 81 1011.4
20260504044524 52 189 3.0 6.0 0.00 0.36 0.36 81 1011.5
20260504044024 52 195 2.0 4.0 0.00 0.36 0.36 80 1011.2
20260504043503 53 192 2.0 3.0 0.00 0.36 0.36 80 1011.4
20260504043003 53 185 2.0 4.0 0.00 0.36 0.36 80 1011.5
20260504042524 53 188 2.0 4.0 0.00 0.36 0.36 80 1011.3
20260504042003 52 182 2.0 3.0 0.00 0.36 0.36 81 1011.6
20260504041524 52 166 1.0 3.0 0.00 0.36 0.36 81 1011.4
20260504041003 52 167 2.0 3.0 0.00 0.36 0.36 81 1011.6
20260504040524 53 165 1.0 3.0 0.00 0.36 0.36 80 1011.5
20260504040003 53 208 0.0 3.0 0.00 0.36 0.36 79 1011.4
20260504035524 53 222 1.0 3.0 0.00 0.36 0.36 79 1011.4
20260504035003 53 217 2.0 3.0 0.00 0.36 0.36 78 1011.4
20260504034503 53 221 1.0 3.0 0.00 0.36 0.36 78 1011.7
20260504034003 53 232 1.0 3.0 0.00 0.36 0.36 78 1011.6
20260504033503 54 241 1.0 3.0 0.00 0.36 0.36 78 1011.6
20260504033003 54 232 1.0 3.0 0.00 0.36 0.36 77 1011.5
20260504032503 54 228 2.0 4.0 0.00 0.36 0.36 77 1011.6
20260504032003 54 225 3.0 6.0 0.00 0.36 0.36 77 1011.7
20260504031524 54 217 3.0 6.0 0.00 0.36 0.36 76 1011.7
20260504031003 54 215 2.0 6.0 0.00 0.36 0.36 76 1011.5
20260504030503 54 210 2.0 6.0 0.00 0.36 0.36 75 1011.8
20260504030003 54 201 2.0 4.0 0.00 0.36 0.36 75 1011.8
20260504025503 54 199 3.0 6.0 0.00 0.36 0.36 75 1011.6
20260504025003 55 205 3.0 6.0 0.00 0.36 0.36 75 1011.8
20260504024503 55 213 3.0 7.0 0.00 0.36 0.36 74 1011.7
20260504024003 55 218 4.0 8.0 0.00 0.36 0.36 73 1011.9
20260504023503 55 214 3.0 8.0 0.00 0.36 0.36 73 1011.6
20260504023003 55 202 2.0 6.0 0.00 0.36 0.36 73 1011.6
20260504022503 56 211 4.0 9.0 0.00 0.36 0.36 72 1011.7
20260504022003 56 216 5.0 9.0 0.00 0.36 0.36 70 1011.6
20260504021503 56 214 4.0 9.0 0.00 0.36 0.36 70 1011.7
20260504021003 56 226 3.0 8.0 0.00 0.36 0.36 70 1011.8
20260504020503 56 243 3.0 8.0 0.00 0.36 0.36 69 1011.7
20260504020003 56 241 3.0 8.0 0.00 0.36 0.36 69 1011.8
20260504015524 56 231 2.0 6.0 0.00 0.36 0.36 69 1011.6
20260504015003 56 222 2.0 6.0 0.00 0.36 0.36 70 1011.7
20260504014524 56 219 3.0 6.0 0.00 0.36 0.36 70 1011.6
20260504014003 56 211 4.0 8.0 0.00 0.36 0.36 69 1011.9
20260504013503 56 208 4.0 8.0 0.00 0.36 0.36 70 1011.7
20260504013003 56 211 4.0 9.0 0.00 0.36 0.36 70 1011.9
20260504012503 57 213 4.0 9.0 0.00 0.36 0.36 69 1011.9
20260504012003 57 214 4.0 8.0 0.00 0.36 0.36 68 1011.9
20260504011503 57 221 4.0 8.0 0.00 0.36 0.36 67 1011.9
20260504011003 57 221 4.0 8.0 0.00 0.36 0.36 67 1011.9
20260504010503 57 215 3.0 9.0 0.00 0.36 0.36 67 1011.9
20260504010003 57 215 4.0 10.0 0.00 0.36 0.36 67 1011.8
20260504005524 57 216 6.0 11.0 0.00 0.36 0.36 67 1012.2
20260504005003 58 215 6.0 11.0 0.00 0.36 0.36 66 1012.0
20260504004503 58 210 5.0 9.0 0.00 0.36 0.36 66 1012.0
20260504004003 58 210 3.0 8.0 0.00 0.36 0.36 66 1012.1
20260504003503 58 208 3.0 7.0 0.00 0.36 0.36 66 1011.9
20260504003003 58 208 2.0 7.0 0.00 0.36 0.36 67 1012.0
20260504002503 58 223 1.0 4.0 0.00 0.36 0.36 67 1012.0
20260504002024 58 230 1.0 4.0 0.00 0.36 0.36 67 1012.1
20260504001503 58 231 2.0 3.0 0.00 0.36 0.36 68 1012.1
20260504001024 58 229 2.0 3.0 0.00 0.36 0.36 67 1012.3
20260504000503 58 218 2.0 6.0 0.00 0.36 0.36 67 1012.1
20260504000003 58 215 3.0 7.0 0.00 0.36 0.36 66 1012.3
20260503235503 58 214 4.0 7.0 0.00 0.36 0.36 66 1012.3
20260503235003 58 212 3.0 6.0 0.00 0.36 0.36 65 1012.2
20260503234524 59 214 3.0 6.0 0.00 0.36 0.36 65 1012.3
20260503234003 59 215 3.0 7.0 0.00 0.36 0.36 65 1012.2
20260503233503 59 207 4.0 7.0 0.00 0.36 0.36 64 1012.5
20260503233003 59 198 4.0 7.0 0.00 0.36 0.36 64 1012.5
20260503232524 59 199 4.0 7.0 0.00 0.36 0.36 63 1012.5
20260503232003 59 205 4.0 7.0 0.00 0.36 0.36 62 1012.3
20260503231503 60 206 4.0 7.0 0.00 0.36 0.36 60 1012.5
20260503231003 60 214 3.0 7.0 0.00 0.36 0.36 59 1012.3
20260503230503 60 215 3.0 7.0 0.00 0.36 0.36 60 1012.3
20260503230003 60 212 3.0 7.0 0.36 0.36 0.36 59 1012.5
20260503225503 60 216 2.0 7.0 0.36 0.36 0.36 60 1012.6
20260503225003 60 212 3.0 7.0 0.36 0.36 0.36 60 1012.8
20260503224503 60 216 4.0 8.0 0.36 0.36 0.36 60 1012.6
20260503224003 60 231 4.0 8.0 0.36 0.36 0.36 60 1012.5
20260503223503 60 239 3.0 7.0 0.36 0.36 0.36 60 1012.7
20260503223003 60 236 2.0 6.0 0.36 0.36 0.36 61 1012.7
20260503222503 60 229 3.0 6.0 0.36 0.36 0.36 60 1012.7
20260503222003 60 224 3.0 6.0 0.36 0.36 0.36 59 1012.6
20260503221524 60 227 3.0 6.0 0.36 0.36 0.36 59 1012.7
20260503221024 60 217 3.0 7.0 0.36 0.36 0.36 59 1012.8
20260503220524 60 216 4.0 8.0 0.36 0.36 0.36 58 1012.7
20260503220003 60 220 4.0 8.0 0.00 0.00 0.00 58 1012.7
20260503215503 60 221 3.0 8.0 0.00 0.00 0.32 58 1012.6
20260503215003 61 214 3.0 8.0 0.00 0.00 0.32 58 1012.6
20260503214503 61 217 3.0 8.0 0.00 0.00 0.32 58 1012.6
20260503214003 61 220 3.0 7.0 0.00 0.00 0.32 57 1012.6
20260503213503 61 212 3.0 7.0 0.00 0.00 0.32 57 1012.5
20260503213003 61 212 4.0 7.0 0.00 0.00 0.32 57 1012.7
20260503212503 61 213 3.0 6.0 0.00 0.00 0.32 57 1012.6
20260503212024 61 216 3.0 7.0 0.00 0.00 0.32 56 1012.5
20260503211503 61 227 3.0 7.0 0.00 0.00 0.32 56 1012.5
20260503211024 61 244 4.0 9.0 0.00 0.00 0.32 57 1012.3
20260503210524 61 246 4.0 9.0 0.00 0.00 0.32 56 1012.3
20260503210003 61 246 4.0 9.0 0.00 0.00 0.32 56 1012.1
20260503205503 61 246 4.0 9.0 0.00 0.00 0.32 56 1012.1
20260503205003 61 244 4.0 8.0 0.00 0.00 0.32 56 1012.3
20260503204503 61 243 4.0 9.0 0.00 0.00 0.32 57 1012.2
20260503204003 61 238 4.0 9.0 0.00 0.00 0.32 57 1012.0
20260503203503 61 239 5.0 11.0 0.00 0.00 0.32 58 1012.0
20260503203003 61 237 5.0 11.0 0.00 0.00 0.32 57 1012.1
20260503202503 61 226 5.0 11.0 0.00 0.00 0.32 57 1012.0
20260503202003 61 224 4.0 11.0 0.00 0.00 0.32 59 1011.9
20260503201503 61 237 4.0 9.0 0.00 0.00 0.32 59 1011.7
20260503201003 62 237 4.0 9.0 0.00 0.00 0.32 58 1011.8
20260503200503 62 242 5.0 10.0 0.00 0.00 0.32 59 1011.5
20260503200003 62 251 5.0 10.0 0.00 0.00 0.32 60 1011.6
20260503195524 62 250 5.0 10.0 0.00 0.00 0.32 60 1011.9
20260503195003 62 249 5.0 9.0 0.00 0.00 0.32 61 1011.7